Miscellaneous Local Product
Issued by NWS Hastings, NE

Home | Current Version | Previous Version | Text Only | Print | Product List | Glossary Off
Versions: 1 2 3 4 5 6 7 8 9 10 11 12 13 14 15 16 17 18 19 20 21 22 23 24 25 26 27 28 29 30 31 32 33 34 35 36 37 38 39 40 41 42 43 44 45 46 47 48 49 50

000
AXUS43 KGID 062202
MISGRI

GID CWA HOURLY WEATHER ROUNDUP
NATIONAL WEATHER SERVICE HASTINGS NE
500 PM CDT MON JUL 06 2015

NOTE: "FAIR" INDICATES FEW OR NO CLOUDS BELOW 12,000 FEET WITH NO
SIGNIFICANT WEATHER AND/OR OBSTRUCTIONS TO VISIBILITY.

...SOUTH CENTRAL NEBRASKA...

CITY           SKY/WX    TMP DP  RH WIND       PRES   REMARKS
GRAND ISLAND   MOSUNNY   76  58  53 N23G33    30.00F HAZE
HASTINGS       MOSUNNY   76  59  55 N22G31    30.00F HAZE
KEARNEY        PTSUNNY   77  55  47 N22       30.02F
ORD            MOSUNNY   76  56  49 N16G26    30.04F HAZE
YORK           PTSUNNY   73  64  73 N28G37    29.97F
AURORA         MOSUNNY   75  60  58 N24G31    29.99S HAZE
LEXINGTON      PTSUNNY   77  54  44 N17G25    30.07F HAZE
HOLDREGE       PTSUNNY   75  53  46 N25G32    30.04F HAZE
HEBRON         CLOUDY    73  64  73 N18G28    29.95R

...NEBRASKA PANHANDLE...

CITY           SKY/WX    TMP DP  RH WIND       PRES   REMARKS
CHADRON        MOSUNNY   72  51  47 VRB5      30.22F
ALLIANCE       CLOUDY    69  55  60 N10       30.22F HAZE
SCOTTSBLUFF    PTSUNNY   70  52  52 CALM      30.24F HAZE
SIDNEY         CLOUDY    69  52  54 NE14      30.24S HAZE

...WESTERN AND NORTH CENTRAL NEBRASKA...

CITY           SKY/WX    TMP DP  RH WIND       PRES   REMARKS
VALENTINE      CLOUDY    72  52  49 N15       30.16S
AINSWORTH      MOSUNNY   74  55  50 N16       30.15S
ONEILL         MOSUNNY   75  57  52 N16G26    30.09S HAZE
BROKEN BOW     MOSUNNY   76  56  49 N17G30    30.08F HAZE
IMPERIAL       CLOUDY    74  51  44 N13       30.15F
NORTH PLATTE   PTSUNNY   74  53  48 N17G24    30.13S
MCCOOK         MOSUNNY   79  55  43 N17G25    30.08F HAZE

...EASTERN NEBRASKA...

CITY           SKY/WX    TMP DP  RH WIND       PRES   REMARKS
NORFOLK        PTSUNNY   77  62  59 N17G24    29.99F HAZE
SO SIOUX CITY  PTSUNNY   76  61  59 N23       29.97S HAZE
TEKAMAH        CLOUDY    76  66  71 N17       29.94S
ALBION           N/A     76  56  50 N18G25    30.02F HAZE
OMAHA EPPLEY   PTSUNNY   76  67  73 N23G33    29.91R
OFFUTT AFB     PTSUNNY   73  70  88 N18G26    29.89R
MILLARD        CLOUDY    75  67  75 N13G22    29.92R
LINCOLN        CLOUDY    72  68  87 N16       29.94R
NEBRASKA CITY  CLOUDY    74  72  93 N9        29.89R
BEATRICE       CLOUDY    72  69  89 N16G23    29.92R
FALLS CITY     CLOUDY    74  71  91 N7        29.87R

...NORTHERN KANSAS...

CITY           SKY/WX    TMP DP  RH WIND       PRES   REMARKS
GOODLAND       CLOUDY    74  58  57 N17       30.13F
HILL CITY      CLOUDY    78  60  53 N17G28    30.02F HAZE
NORTON         MOCLDY    75  52  43 N20G25    30.03S
PHILLIPSBURG   MOSUNNY   82  61  47 N13G29    29.99F
SMITH CENTER   PTSUNNY   75  61  60 N17G29    29.98S
HAYS           CLOUDY    73  61  64 N17G29    29.99S
RUSSELL        CLOUDY    75  66  73 N21G28    29.95S
CONCORDIA      CLOUDY    72  67  84 N15G22    29.94R
SALINA         CLOUDY    76  71  85 N21G28    29.89S
TOPEKA         TSTM      72  71  97 W10       29.85R VSB 3/4



USA.gov is the U.S. government's official web portal to all federal, state and local government web resources and services.